FENGYUN 1C DEB, 30446

Orbit data source: Space-Track

FENGYUN 1C DEB, 30446 is space debris in SSO originally from a launch on Mon, 10 May 1999 UTC launched from the Taiyaun Space Center, China (TSC). Fengyun 1C debris stems from the Chinese weather satellite Fengyun-1C, which was intentionally destroyed by a Chinese anti-satellite missile in 2007. This event dramatically increased the amount of space debris, with thousands of trackable fragments posing hazards to satellites and human spaceflight. The Fengyun 1C debris cloud has become a focal point in discussions about space sustainability and the need for international regulations to prevent the creation of new debris.

Loading next visibility...
Identifier
30446, 1999-025AFH
Orbit
SSO
Country
Flag of CNCN / PRC
Related business
Manufacturer
Unknown
Mission
Spacecraft
Bus & Motor
Unknown
Mass
Unknown
Launch date (UTC)
1999-05-10 (27 years ago)
Launch vehicle
Unknown
Launch site
Taiyaun Space Center, China (TSC)
Object type
Payload
Rocket body
Debris
Shape & HBR
Unknown shape, 0.1 m
Radar Cross Section
Small (<0.1 m²)

Expand to show TLE details & history
Last TLE update: 18 hours ago

TLE from 18 hours ago
0 FENGYUN 1C DEB
1 30446U 99025AFH 26122.19957551  .00005626  00000-0  15652-2 0  9997
2 30446  98.6036 211.7127 0032783  37.3996 322.9468 14.46481816  2078
Epoch: 2026-05-02T04:47Z
TLE epoch observation values (Epoch: 2026-05-02T04:47:23.324Z)
Latitude
-0.00002°
Longitude
-80.25538°
Altitude
721.525 km
Speed
7.504 km/s
True Right ascension
14h 06m 51s
True Declination
0° 00' 00"
Sunlit
Object was in full shadow at epoch
Visualization orbit readout
Latitude
Unknown
Longitude
Unknown
Altitude
Unknown
Speed
Unknown
Apparent Right ascension
Unknown
Apparent Declination
Unknown
Sunlit
N/A
Visualization observer readout
Local Sidereal Time
06:34:14
Azimuth
Unknown
Elevation
Unknown
Doppler factor
Unknown
Orbital elements
Apogee altitude
757.597 km
Perigee altitude
710.964 km
Semi-major axis
7,112.418 km
Eccentricity
0.00328
Inclination
98.6036°
RAAN
211.7127°
Arg. of periapsis
37.3996°
True anomaly
322.7197°
Mean anomaly
322.9468°
Eccentric anomaly
322.83332°
Mean motion
3.61841 °/min
Orbital period
99.49 mins
BSTAR
0.0015652
Loading maneuver chart data...
Computing Atmospheric mass density...

Documentation

Showing up to 5 results
|